BAW35A EDDF-EGLL

Flight info

Callsign BAW35A
Flight time N/A
Altitude 36000
Route OBOKA5G/25C OBOKA Z29 TORNU DCT ABNED L980 LOGAN
Aircraft B789/H-SDE1E2E3FGHIJ2J3J4J5M1RWXY/LB1D1

Departure

Time 2026-05-03 20:37
Airport Frankfurt Main Airport (EDDF)

Arrival

Time N/A
Airport London Heathrow Airport (EGLL)
Time Latitude Longitude Altitude Speed Heading
2026-05-03 20:15 50.04593 8.57049 351 ft 0 kts 59°
2026-05-03 20:26 50.04591 8.57045 351 ft 3 kts 60°
2026-05-03 20:27 50.04579 8.57008 361 ft 4 kts 59°
2026-05-03 20:27 50.04568 8.56979 361 ft 4 kts 68°
2026-05-03 20:27 50.04563 8.56943 361 ft 4 kts 98°
2026-05-03 20:27 50.04570 8.56914 361 ft 4 kts 142°
2026-05-03 20:28 50.04587 8.56905 361 ft 4 kts 190°
2026-05-03 20:28 50.04578 8.56902 361 ft 4 kts 192°
2026-05-03 20:28 50.04552 8.56892 359 ft 4 kts 193°
2026-05-03 20:28 50.04541 8.56888 355 ft 0 kts 193°
2026-05-03 20:32 50.04537 8.56886 354 ft 2 kts 194°
2026-05-03 20:32 50.04514 8.56877 352 ft 5 kts 194°
2026-05-03 20:32 50.04463 8.56858 354 ft 10 kts 191°
2026-05-03 20:33 50.04379 8.56836 351 ft 13 kts 189°
2026-05-03 20:33 50.04299 8.56836 358 ft 10 kts 148°
2026-05-03 20:33 50.04283 8.56923 354 ft 10 kts 81°
2026-05-03 20:33 50.04312 8.57058 355 ft 16 kts 69°
2026-05-03 20:34 50.04360 8.57253 359 ft 21 kts 69°
2026-05-03 20:34 50.04410 8.57466 359 ft 21 kts 70°
2026-05-03 20:34 50.04459 8.57670 358 ft 20 kts 70°
2026-05-03 20:34 50.04510 8.57884 359 ft 21 kts 70°
2026-05-03 20:35 50.04560 8.58091 356 ft 20 kts 69°
2026-05-03 20:35 50.04608 8.58294 359 ft 20 kts 69°
2026-05-03 20:35 50.04653 8.58485 356 ft 14 kts 75°
2026-05-03 20:35 50.04632 8.58562 359 ft 7 kts 152°
2026-05-03 20:36 50.04586 8.58591 357 ft 8 kts 159°
2026-05-03 20:36 50.04529 8.58614 361 ft 8 kts 182°
2026-05-03 20:36 50.04485 8.58572 361 ft 7 kts 237°
2026-05-03 20:36 50.04464 8.58490 356 ft 13 kts 249°
2026-05-03 20:37 50.04377 8.58122 358 ft 66 kts 249°
2026-05-03 20:37 50.04143 8.57144 359 ft 126 kts 249°
2026-05-03 20:37 50.03793 8.55652 581 ft 154 kts 251°
2026-05-03 20:37 50.03428 8.54038 1300 ft 160 kts 249°
2026-05-03 20:38 50.03014 8.52410 2114 ft 164 kts 248°
2026-05-03 20:38 50.02664 8.50566 2682 ft 192 kts 266°
2026-05-03 20:38 50.02896 8.48389 3436 ft 211 kts 274°
2026-05-03 20:38 50.02993 8.46125 4665 ft 213 kts 269°
2026-05-03 20:39 50.02987 8.43752 5000 ft 231 kts 256°
2026-05-03 20:39 50.02613 8.41224 4959 ft 242 kts 256°
2026-05-03 20:39 50.02325 8.38628 4965 ft 246 kts 257°
2026-05-03 20:39 50.02033 8.36031 5933 ft 246 kts 256°
2026-05-03 20:40 50.01711 8.33339 6789 ft 259 kts 255°
2026-05-03 20:40 50.01380 8.30585 6983 ft 260 kts 257°
2026-05-03 20:40 50.01437 8.27772 6982 ft 262 kts 276°
2026-05-03 20:40 50.02071 8.25090 6982 ft 267 kts 288°
2026-05-03 20:41 50.02837 8.22458 6984 ft 267 kts 289°
2026-05-03 20:41 50.03679 8.19849 7034 ft 280 kts 304°
2026-05-03 20:41 50.05143 8.17972 8247 ft 277 kts 318°
2026-05-03 20:41 50.06657 8.16041 9272 ft 285 kts 315°
2026-05-03 20:42 50.08217 8.14077 10331 ft 294 kts 317°
2026-05-03 20:42 50.09902 8.12078 10840 ft 321 kts 319°
2026-05-03 20:42 50.11759 8.09907 11344 ft 344 kts 319°
2026-05-03 20:42 50.13670 8.07642 12464 ft 347 kts 319°
2026-05-03 20:43 50.15622 8.05296 12987 ft 361 kts 319°
2026-05-03 20:43 50.17609 8.02916 12989 ft 357 kts 319°
2026-05-03 20:43 50.19565 8.00584 12990 ft 353 kts 319°
2026-05-03 20:43 50.21482 7.98288 12990 ft 352 kts 319°
2026-05-03 20:44 50.23423 7.95957 12989 ft 352 kts 319°
2026-05-03 20:44 50.25362 7.93627 12990 ft 352 kts 318°
2026-05-03 20:44 50.26653 7.92074 13110 ft 356 kts 319°
2026-05-03 20:44 50.28603 7.89730 14288 ft 353 kts 318°
2026-05-03 20:45 50.30569 7.87361 15150 ft 360 kts 318°
2026-05-03 20:45 50.32573 7.84944 16063 ft 367 kts 317°
2026-05-03 20:45 50.34616 7.82479 16916 ft 373 kts 317°
2026-05-03 20:45 50.36687 7.79978 17812 ft 378 kts 317°
2026-05-03 20:46 50.38783 7.77443 18624 ft 383 kts 317°
2026-05-03 20:46 50.40909 7.74867 19375 ft 388 kts 317°
2026-05-03 20:46 50.43056 7.72264 20124 ft 393 kts 316°
2026-05-03 20:46 50.45233 7.69622 20846 ft 398 kts 316°
2026-05-03 20:47 50.47435 7.66946 21547 ft 402 kts 316°
2026-05-03 20:47 50.49661 7.64238 22230 ft 407 kts 316°
2026-05-03 20:47 50.51908 7.61500 22918 ft 411 kts 316°
2026-05-03 20:47 50.54175 7.58736 23572 ft 416 kts 316°
2026-05-03 20:48 50.56474 7.55928 24110 ft 420 kts 316°
2026-05-03 20:48 50.58792 7.53093 24652 ft 423 kts 316°
2026-05-03 20:48 50.61130 7.50231 25163 ft 427 kts 316°
2026-05-03 20:48 50.63482 7.47347 25674 ft 431 kts 316°
2026-05-03 20:49 50.65821 7.44477 26256 ft 432 kts 316°
2026-05-03 20:49 50.68206 7.41545 26762 ft 436 kts 316°
2026-05-03 20:49 50.70607 7.38589 27246 ft 439 kts 316°
2026-05-03 20:49 50.72970 7.35525 27706 ft 437 kts 309°
2026-05-03 20:50 50.74936 7.31891 28138 ft 433 kts 298°
2026-05-03 20:50 50.76443 7.27806 28572 ft 430 kts 292°
2026-05-03 20:50 50.77832 7.23582 29005 ft 434 kts 292°
2026-05-03 20:50 50.79214 7.19334 29448 ft 436 kts 292°
2026-05-03 20:51 50.80600 7.15047 29889 ft 439 kts 292°
2026-05-03 20:51 50.82001 7.10731 30269 ft 442 kts 292°
2026-05-03 20:51 50.83413 7.06383 30620 ft 445 kts 292°
2026-05-03 20:51 50.84825 7.02021 31114 ft 444 kts 292°
2026-05-03 20:52 50.86235 6.97650 31444 ft 447 kts 292°
2026-05-03 20:52 50.87652 6.93245 31761 ft 450 kts 292°
2026-05-03 20:52 50.89061 6.88868 32042 ft 453 kts 292°
2026-05-03 20:52 50.90496 6.84406 32344 ft 456 kts 292°
2026-05-03 20:53 50.91938 6.79909 32662 ft 458 kts 292°
2026-05-03 20:53 50.93385 6.75386 32955 ft 461 kts 292°
2026-05-03 20:53 50.94837 6.70838 33239 ft 464 kts 292°
2026-05-03 20:53 50.96296 6.66266 33595 ft 464 kts 292°
2026-05-03 20:54 50.97752 6.61697 34010 ft 464 kts 292°
2026-05-03 20:54 51.00531 6.52605 39912 ft 456 kts 290°
2026-05-03 20:54 51.01941 6.48044 39903 ft 463 kts 295°
2026-05-03 20:55 51.04998 6.39067 39561 ft 459 kts 292°